Showing default

KINEIS-5E, 62083

Orbit data source: Space-Track

KINEIS-5E, 62083 is a French payload satellite in SSO that was launched on Mon, 25 Nov 2024 UTC via an ELECTRON launch vehicle from the Rocket Lab Launch Complex (RLLC). Payload-class satellites include a variety of spacecraft equipped with specific instruments for various scientific and technological missions. These include communications satellites like Starlink; space stations such as the ISS; scientific satellites like the Hubble; Earth observation satellites from companies like Planet Labs, Umbra, and HawkEye 360; GPS; miniature CubeSats for education and research; and military/defense satellites.

Loading next visibility...
Identifier
62083, 2024-219C
Orbit
SSO
Last TLE update
7 hours ago
Origin
Manufacturer
KINEIS
Mission
Operational Commercial Communications
Bus & Motor
CUBESAT 16U, Unknown motor
Mass
28 kg wet, 28 kg dry
Launch date (UTC)
2024-11-25 (7 months ago)
Launch vehicle
ELECTRON
Launch site
Rocket Lab Launch Complex (RLLC)
Object type
Payload
Rocket body
Debris
Shape & HBR
Box + 2 Pan + 1 Ant, 1.6 m
Radar Cross Section
0.229 m², Medium (>0.1 m² and < 1m²)

Expand to show TLE details & history

TLE from 7 hours ago
0 KINEIS-5E
1 62083U 24219C   25182.90393857  .00000536  00000-0  92671-4 0  9992
2 62083  97.9721 344.0626 0001784  79.9528 280.1881 14.72249071 32225
Epoch: 2025-07-01T21:41Z
TLE epoch observation values (Epoch: 2025-07-01T21:41:40.292Z)
Latitude
0.00001°
Longitude
98.45201°
Altitude
656.684 km
Speed
7.529 km/s
True Right ascension
22h 56m 15s
True Declination
0° 00' 00"
Sunlit
Object was in partial shadow at epoch
Visualization orbit readout
Latitude
66.33238°
Longitude
80.20142°
Altitude
664.129 km
Speed
7.532 km/s
Apparent Right ascension
02h 05m 41s
Apparent Declination
23° 50' 07"
Sunlit
Object is in daylight
Visualization observer readout
Local Sidereal Time
16:12:53
Azimuth
30.793° NE
Elevation
-19.692°
Doppler factor
1
Orbital elements
Apogee altitude
652.206 km
Perigee altitude
649.698 km
Semi-major axis
7,029.089 km
Eccentricity
0.00018
Inclination
97.9721°
RAAN
344.0626°
Arg. of periapsis
79.9528°
True anomaly
Unknown
Mean anomaly
280.1881°
Eccentric anomaly
Unknown
Mean motion
3.68294 °/min
Orbital period
97.75 mins
BSTAR
0.000092671
Loading maneuver chart data...
Loading SW <> Apogee altitude chart data...
Loading historical data...
Loading historical data...
Loading historical data...
Loading historical data...
Loading historical data...
Loading historical data...
Loading historical data...

KINEIS-5E Visibility forecast

Observer location: undefined°, undefined°

Span
Click to sort rows by Start time (UTC) header in descending order
Start Az.
Max El. time (UTC)
Max El. Az.
Max El.
End time (UTC)
End Az.
7 mins2025-07-02 10:52:28.346Z173.329° S2025-07-02 10:55:28.346Z254.579° W44.274°2025-07-02 10:59:28.346Z343.819° N
5 mins2025-07-02 22:46:28.346Z64.914° ENE2025-07-02 22:48:28.346Z103.092° ESE21.012°2025-07-02 22:51:28.346Z146.192° SSE
6 mins2025-07-03 00:22:28.346Z338.655° N2025-07-03 00:24:28.346Z300.327° NW27.279°2025-07-03 00:28:28.346Z230.199° WSW
|